Tracking 20626 objects as of 8-Apr-2020
HD Live streaming from Space Station
objects crossing your sky now

SL-8 R/B

Track SL-8 R/B now!
10-day predictions


NORAD ID: 7434
Int'l Code: 1974-071B
Perigee: 762.1 km
Apogee: 790.7 km
Inclination: 74.0 °
Period: 100.2 minutes
Semi major axis: 7147 km
RCS: 4.4573 m2 (large)
Launch date: September 11, 1974
Source: Commonwealth of Independent States (former USSR) (CIS)
Launch site: PLESETSK MISSILE AND SPACE COMPLEX (PKMTR)

Note: This is a ROCKET BODY
aabbcc
Your satellite tracking list
Your tracking list is empty




NASA's NSSDC Master Catalog

Two Line Element Set (TLE):
1  7434U 74071B   20099.19055179  .00000105  00000-0  44289-4 0  9991
2  7434  74.0452 129.6703 0020010 150.0199 210.2104 14.36735155384058
Source of the keplerian elements: AFSPC